Orange, MA

7:03 PM EDT on September 25, 2017 (GMT -0400)
Orange Municipal

Weather History for KORE - October, 2013

Change the Weather History Date:

Sunday, October 6, 2013

  Actual Average Record
Temperature  
Mean Temperature 56 °F -  
Max Temperature 60 °F 61 °F 82 °F (2007)
Min Temperature 51 °F 37 °F 26 °F (1996)
Degree Days  
Heating Degree Days 10    
Growing Degree Days 6 (Base 50)    
Moisture  
Dew Point 54 °F    
Average Humidity 94    
Maximum Humidity 100    
Minimum Humidity 88    
Precipitation  
Precipitation 0.56 in - - ()
Sea Level Pressure  
Sea Level Pressure 30.15 in    
Wind  
Wind Speed 1 mph (ENE)    
Max Wind Speed 10 mph    
Max Gust Speed -    
Visibility 5 miles    
Events Rain    
Averages and records for this station are not official NWS values.
T = Trace of Precipitation, MM = Missing Value Source: NWS Daily Summary

Daily Weather History Graph

Daily Weather History Graph

Search for Another Location

Airport or City:

Trip Planner

Search our weather history database for the weather conditions in past years. The results will help you decide how hot, cold, wet, or windy it might be!

Date:

Astronomy

Oct. 06, 2013 Rise Set
Actual Time 6:52 AM EDT 6:21 PM EDT
Civil Twilight 6:23 AM EDT 6:49 PM EDT
Nautical Twilight 5:51 AM EDT 7:22 PM EDT
Astronomical Twilight 5:18 AM EDT 7:54 PM EDT
Moon 8:36 AM EDT (10/6) 7:15 PM EDT (10/6)
Length of Visible Light 12h 25m
Length of Day
11h 29m
Waxing Crescent, 3% of the Moon is Illuminated
Oct 6
Waxing Crescent
Oct 11
First Quarter
Oct 18
Full
Oct 26
Last Quarter
Nov 3
New

Hourly Weather History & Observations

Time (EDT) Temp. Dew Point Humidity Pressure Visibility Wind Dir Wind Speed Gust Speed Precip Events Conditions
12:52 AM 60.1 °F 57.9 °F 93% 30.13 in 7.0 mi Calm Calm - 0.00 in   Overcast
1:31 AM 59.0 °F 57.2 °F 94% 30.13 in 6.0 mi North 3.5 mph - 0.00 in Rain Light Rain
1:40 AM 59.0 °F 57.2 °F 94% 30.12 in 6.0 mi Calm Calm - 0.01 in Rain Light Rain
1:48 AM 60.8 °F 57.2 °F 88% 30.13 in 10.0 mi Calm Calm - 0.01 in   Overcast
1:52 AM 60.1 °F 57.9 °F 93% 30.12 in 10.0 mi Calm Calm - 0.01 in   Overcast
2:35 AM 59.0 °F 57.2 °F 94% 30.11 in 4.0 mi Calm Calm - N/A   Overcast
2:52 AM 59.0 °F 57.9 °F 96% 30.12 in 4.0 mi Calm Calm - N/A   Overcast
3:31 AM 59.0 °F 57.2 °F 94% 30.11 in 2.5 mi NNW 3.5 mph - 0.00 in Rain Light Rain
3:41 AM 59.0 °F 57.2 °F 94% 30.11 in 3.0 mi Calm Calm - 0.00 in Rain Light Rain
3:50 AM 59.0 °F 57.2 °F 94% 30.11 in 2.0 mi Calm Calm - 0.01 in Rain Light Rain
3:52 AM 59.0 °F 57.9 °F 96% 30.11 in 2.0 mi Calm Calm - 0.01 in Rain Light Rain
4:07 AM 59.0 °F 57.2 °F 94% 30.11 in 1.8 mi Calm Calm - 0.00 in Rain Light Rain
4:21 AM 59.0 °F 57.2 °F 94% 30.11 in 2.5 mi Calm Calm - 0.01 in Rain Light Rain
4:52 AM 59.0 °F 57.9 °F 96% 30.13 in 2.0 mi Calm Calm - 0.08 in Rain Heavy Rain
5:07 AM 59.0 °F 57.2 °F 94% 30.13 in 4.0 mi Calm Calm - 0.04 in Rain Light Rain
5:20 AM 59.0 °F 57.2 °F 94% 30.13 in 2.0 mi Calm Calm - 0.10 in Rain Rain
5:37 AM 59.0 °F 57.2 °F 94% 30.14 in 5.0 mi SSE 3.5 mph - 0.15 in Rain Light Rain
5:52 AM 59.0 °F 57.9 °F 96% 30.15 in 3.0 mi Calm Calm - 0.18 in Rain Rain
6:00 AM 59.0 °F 57.2 °F 94% 30.15 in 1.8 mi Calm Calm - 0.05 in Rain Heavy Rain
6:09 AM 59.0 °F 57.2 °F 94% 30.15 in 3.0 mi East 5.8 mph - 0.07 in Rain Light Rain
6:20 AM 57.2 °F 55.4 °F 94% 30.15 in 5.0 mi East 6.9 mph - 0.08 in Rain Rain
6:52 AM 57.9 °F 55.9 °F 93% 30.16 in 10.0 mi SSE 4.6 mph - 0.09 in Rain Light Rain
7:08 AM 57.2 °F 55.4 °F 94% 30.15 in 4.0 mi Calm Calm - 0.02 in Rain Heavy Rain
7:52 AM 57.0 °F 55.0 °F 93% 30.18 in 10.0 mi ENE 3.5 mph - 0.04 in Rain Light Rain
8:12 AM 57.2 °F 53.6 °F 88% 30.18 in 10.0 mi East 5.8 mph - 0.00 in   Overcast
8:41 AM 55.4 °F 53.6 °F 94% 30.18 in 9.0 mi East 3.5 mph - 0.00 in   Overcast
8:52 AM 55.9 °F 54.0 °F 93% 30.20 in 7.0 mi Calm Calm - 0.00 in   Overcast
9:52 AM 55.0 °F 53.1 °F 93% 30.21 in 3.0 mi East 8.1 mph - 0.01 in Rain Light Rain
10:52 AM 54.0 °F 52.0 °F 93% 30.21 in 10.0 mi East 4.6 mph - 0.00 in   Overcast
11:52 AM 53.1 °F 50.0 °F 89% 30.22 in 9.0 mi East 10.4 mph - 0.00 in Rain Light Rain
12:52 PM 52.0 °F 50.0 °F 93% 30.21 in 10.0 mi Variable 4.6 mph - 0.00 in   Overcast
1:52 PM 52.0 °F 50.0 °F 93% 30.20 in 9.0 mi Calm Calm - 0.01 in Rain Light Rain
2:05 PM 51.8 °F 50.0 °F 94% 30.19 in 2.5 mi Calm Calm - 0.04 in Rain Rain
2:26 PM 51.8 °F 51.8 °F 100% 30.19 in 6.0 mi Calm Calm - 0.08 in Rain Light Rain
2:52 PM 53.1 °F 50.0 °F 89% 30.19 in 10.0 mi Calm Calm - 0.08 in   Overcast
3:52 PM 54.0 °F 51.1 °F 90% 30.19 in 10.0 mi Calm Calm - 0.00 in Rain Light Rain
4:52 PM 54.0 °F 51.1 °F 90% 30.18 in 10.0 mi Calm Calm - 0.01 in   Overcast
5:29 PM 53.6 °F 51.8 °F 94% 30.17 in 8.0 mi NNE 3.5 mph - N/A   Overcast
5:52 PM 53.1 °F 51.1 °F 93% 30.18 in 3.0 mi NNE 3.5 mph - N/A   Overcast
6:01 PM 53.6 °F 51.8 °F 94% 30.17 in 2.0 mi NE 3.5 mph - N/A   Overcast
6:22 PM 51.8 °F 51.8 °F 100% 30.17 in 4.0 mi NE 4.6 mph - N/A   Overcast
6:52 PM 52.0 °F 52.0 °F 100% 30.17 in 4.0 mi Calm Calm - N/A   Overcast
7:52 PM 53.1 °F 52.0 °F 96% 30.17 in 4.0 mi Calm Calm - N/A   Overcast
8:52 PM 53.1 °F 52.0 °F 96% 30.16 in 2.5 mi NE 3.5 mph - 0.01 in   Overcast
9:12 PM 53.6 °F 51.8 °F 94% 30.16 in 3.0 mi Calm Calm - N/A   Overcast
9:28 PM 53.6 °F 51.8 °F 94% 30.16 in 3.0 mi Calm Calm - 0.01 in   Overcast
9:42 PM 53.6 °F 51.8 °F 94% 30.15 in 2.5 mi Calm Calm - 0.01 in   Overcast
9:52 PM 53.1 °F 52.0 °F 96% 30.16 in 2.5 mi Calm Calm - 0.01 in   Overcast
10:20 PM 53.6 °F 51.8 °F 94% 30.14 in 3.0 mi Calm Calm - 0.01 in   Overcast
10:52 PM 53.1 °F 53.1 °F 100% 30.14 in 2.5 mi Calm Calm - 0.01 in   Overcast
11:02 PM 53.6 °F 53.6 °F 100% 30.13 in 4.0 mi Calm Calm - N/A   Overcast
11:52 PM 54.0 °F 53.1 °F 97% 30.13 in 3.0 mi Calm Calm - 0.01 in   Overcast
11:59 PM 53.6 °F 53.6 °F 100% 30.12 in 4.0 mi Calm Calm - N/A   Overcast